Regional Weather Roundup
Issued by NWS

Home | Current Version | Previous Version | Text Only | Print | Product List | Glossary Off
Versions: 1 2 3 4 5 6 7 8 9 10 11 12 13 14 15 16 17 18 19 20 21 22 23 24 25 26 27 28 29 30 31 32 33 34 35 36 37 38 39 40 41 42 43 44 45 46 47 48 49 50

000
ASUS43 KDTX 290010
RWRMI
MICHIGAN HOURLY REGIONAL WEATHER ROUNDUP
NATIONAL WEATHER SERVICE DETROIT/PONTIAC MI
800 PM EDT SAT MAR 28 2015

NOTE: "FAIR" INDICATES FEW OR NO CLOUDS BELOW 12,000 FEET WITH NO
SIGNIFICANT WEATHER AND/OR OBSTRUCTION TO VISIBILITY.

MIZ047>049-052>055-059>063-066>070-074>076-081>083-290100-
SOUTHEAST LOWER MICHIGAN

CITY           SKY/WX    TMP DP  RH WIND       PRES   REMARKS
ADRIAN         CLEAR     33   7  33 NW5       30.28R
6HR MIN TEMP:  30; 6HR MAX TEMP:  36;

ALMA           CLEAR     33   5  30 SW5       30.25F
ANN ARBOR      CLEAR     32   6  33 NW7       30.27R
BAD AXE        CLEAR     29  11  46 SW3       30.25F
6HR MIN TEMP:  26; 6HR MAX TEMP:  32;

DETROIT CITY   CLEAR     32  15  49 S8        30.28R
6HR MIN TEMP:  32; 6HR MAX TEMP:  39;

DETROIT        CLEAR     32   6  33 NW8       30.28R
6HR MIN TEMP:  32; 6HR MAX TEMP:  39;

FLINT          CLEAR     30  10  43 W6        30.27S
6HR MIN TEMP:  30; 6HR MAX TEMP:  37;

GROSSE ILE     CLEAR     28  19  69 S10       30.26S
HILLSDALE      CLEAR     31   4  31 NW3       30.25S
6HR MIN TEMP:  31; 6HR MAX TEMP:  36;

HOWELL         CLEAR     31   6  35 CALM      30.25F
6HR MIN TEMP:  30; 6HR MAX TEMP:  34;


CITY           SKY/WX    TMP DP  RH WIND       PRES   REMARKS
JACKSON        CLEAR     31   4  31 NW3       30.26S
6HR MIN TEMP:  30; 6HR MAX TEMP:  36;

LAMBERTVILLE     N/A     34   9  35 CALM      30.28S
LANSING        CLEAR     33   4  29 W5        30.26F
6HR MIN TEMP:  30; 6HR MAX TEMP:  36;

LAPEER         NOT AVBL
MASON          CLEAR     32   4  30 CALM      30.26S
MONROE         CLEAR     34  12  40 NW6       30.26S
MT. CLEMENS    CLEAR     27  17  65 S6        30.25R
6HR MIN TEMP:  27; 6HR MAX TEMP:  34;

PONTIAC        CLEAR     30   6  36 NW7       30.25R
6HR MIN TEMP:  30; 6HR MAX TEMP:  35; 6HR PCP: TRACE;

PORT HOPE        N/A     26  15  63 SE7       30.23F
6HR MIN TEMP:  26; 6HR MAX TEMP:  29;

PORT HURON     CLEAR     25  16  68 E5        30.29R
TRI CITIES     CLEAR     33  10  38 SW6       30.25S
6HR MIN TEMP:  31; 6HR MAX TEMP:  37;

YPSILANTI      CLEAR     33   8  35 NW7       30.28R
6HR MIN TEMP:  33; 6HR MAX TEMP:  40;

$$
MIZ043>046-050>051-056>058-064>065-071>073-077>080-290100-
SOUTHWEST LOWER MICHIGAN

CITY           SKY/WX    TMP DP  RH WIND       PRES   REMARKS
BATTLE CREEK   CLEAR     33   3  28 NW7       30.27R
6HR MIN TEMP:  31; 6HR MAX TEMP:  38;

BENTON HARBOR  CLEAR     25  10  53 CALM      30.31F
6HR MIN TEMP:  25; 6HR MAX TEMP:  29;

BIG RAPIDS     CLEAR     32   9  37 W8        30.24S
6HR MIN TEMP:  31; 6HR MAX TEMP:  37;

COLDWATER      CLEAR     30   7  37 CALM      30.27S
6HR MIN TEMP:  30; 6HR MAX TEMP:  36;

HOLLAND        CLEAR     27  11  51 W5        30.31F
6HR MIN TEMP:  27; 6HR MAX TEMP:  33;

GRAND RAPIDS   CLEAR     30   9  41 W10       30.28R
6HR MIN TEMP:  30; 6HR MAX TEMP:  37;

KALAMAZOO      CLEAR     33  10  38 W10       30.28R
6HR MIN TEMP:  31; 6HR MAX TEMP:  38;

MARSHALL       CLEAR     32   2  27 CALM      30.25F
MUSKEGON       CLEAR     26  10  50 W6        30.30F
6HR MIN TEMP:  26; 6HR MAX TEMP:  31;

$$
MIZ016>042-290100-
NORTHERN LOWER MICHIGAN

CITY           SKY/WX    TMP DP  RH WIND       PRES   REMARKS
ALPENA         CLEAR     26  14  60 SE10      30.23S
6HR MIN TEMP:  26; 6HR MAX TEMP:  37;

BEAVER ISLAND  CLEAR     25  17  70 S5        30.21F
6HR MIN TEMP:  25; 6HR MAX TEMP:  29;

BELLAIRE       CLEAR     29   3  34 CALM      30.24F
6HR MIN TEMP:  28; 6HR MAX TEMP:  32;

CADILLAC       CLEAR     29   3  32 W8        30.20S
CHARLEVOIX     CLEAR     27  10  49 SW6       30.26F
6HR MIN TEMP:  26; 6HR MAX TEMP:  30;

FRANKFORT      CLEAR     31  13  49 CALM      30.24F
GAYLORD        CLEAR     27   4  37 W8        30.19F
6HR MIN TEMP:  25; 6HR MAX TEMP:  30;

GRAYLING       CLEAR     29   2  32 NW3       30.21S
6HR MIN TEMP:  29; 6HR MAX TEMP:  34;

HARBOR SPRINGS CLEAR     22   9  59 SW3       30.23F
HOUGHTON LAKE  CLEAR     32   6  33 W6        30.20S
6HR MIN TEMP:  29; 6HR MAX TEMP:  36;

MANISTEE       CLEAR     28   1  31 S5        30.26F
OSCODA         CLEAR     28  15  57 SE3       30.23S
PELLSTON       CLEAR     26   1  34 W3        30.23F
6HR MIN TEMP:  26; 6HR MAX TEMP:  31;

TRAVERSE CITY  CLEAR     29  13  51 CALM      30.23F
6HR MIN TEMP:  29; 6HR MAX TEMP:  33;

$$
MIZ007>008-015-290100-
EASTERN UPPER MICHIGAN

CITY           SKY/WX    TMP DP  RH WIND       PRES   REMARKS
KINROSS        CLEAR     27  12  54 SW5       30.18F
6HR MIN TEMP:  27; 6HR MAX TEMP:  36;

MACKINAC ISLAN CLEAR     23  17  77 SW7       30.21F
6HR MIN TEMP:  23; 6HR MAX TEMP:  26;

NEWBERRY       CLEAR     24  15  67 S14       30.17F
6HR MIN TEMP:  24; 6HR MAX TEMP:  30;

S. S. MARIE    CLEAR     26   6  42 SW5       30.17F
6HR MIN TEMP:  26; 6HR MAX TEMP:  32;

$$
MIZ004>006-011>014-085-290100-
CENTRAL UPPER MICHIGAN

CITY           SKY/WX    TMP DP  RH WIND       PRES   REMARKS
MANISTIQUE     PTCLDY    28  23  83 S10G16    30.18F
ESCANABA       CLEAR     30  21  69 S12G18    30.16F
6HR MIN TEMP:  27; 6HR MAX TEMP:  34;

MENOMINEE      CLEAR     34  16  47 SW12      30.18S
6HR MIN TEMP:  32; 6HR MAX TEMP:  37;

SAWYER-GWINN   CLEAR     32  14  47 S12       30.10S
$$
MIZ001>003-009>011-084-290100-
WESTERN UPPER MICHIGAN

CITY           SKY/WX    TMP DP  RH WIND       PRES   REMARKS
IRON MOUNTAIN  CLEAR     37   9  31 S10       30.10S
6HR MIN TEMP:  33; 6HR MAX TEMP:  41;

HOUGHTON       CLEAR     28   9  44 E6        30.05F
6HR MIN TEMP:  28; 6HR MAX TEMP:  38;

COPPER HARBOR    N/A     28  13  53 VRB3      30.08F
6HR MIN TEMP:  27; 6HR MAX TEMP:  34;

IRONWOOD       PTCLDY    39  10  30 S10G21    30.01F
6HR MIN TEMP:  36; 6HR MAX TEMP:  41;

$$

ABBREVIATIONS USED IN REMARKS
   TC - TEMPERATURE IN CELSIUS
  WCI - WIND CHILL INDEX
   HX - HEAT INDEX
  VSB - VISIBILITY



USA.gov is the U.S. government's official web portal to all federal, state and local government web resources and services.